Location: L�beck
(53.8752°N, 10.6787°E)
Time: 06:13:19
(UTC+01:00)

N. Korean satellite - Visible Passes

Search period start: 18 February 2018 00:00
Search period end: 28 February 2018 00:00
Orbit: 459 x 514 km, 97.2° (Epoch: 17 February)

Date Brightness Start Highest point End Pass type
(mag) Time Alt. Az. Time Alt. Az. Time Alt. Az.
18 Feb 10.2 05:56:30 10° NE 05:58:30 14° E 06:00:30 10° ESE visible
18 Feb 7.2 18:11:12 10° S 18:14:37 61° W 18:18:06 10° NNW visible
19 Feb 10.3 19:23:33 10° WSW 19:24:52 12° W 19:26:12 10° WNW visible
20 Feb 8.4 06:41:25 10° NNE 06:44:52 39° E 06:48:20 10° SSE visible
20 Feb 9.6 18:58:16 10° SW 19:00:53 20° W 19:03:32 10° NW visible
21 Feb 9.5 06:18:01 10° NE 06:20:59 23° E 06:23:59 10° SSE visible
21 Feb 8.5 18:33:46 10° SSW 18:36:58 34° W 18:40:13 10° NNW visible
22 Feb 10.2 05:55:02 10° NE 05:57:02 14° E 05:59:01 10° ESE visible
23 Feb 10.2 19:21:52 10° WSW 19:23:21 12° W 19:24:51 10° WNW visible
24 Feb 8.5 06:39:55 10° NNE 06:43:23 38° E 06:46:52 10° SSE visible
24 Feb 9.6 18:56:40 10° SW 18:59:21 21° W 19:02:05 10° NW visible
25 Feb 9.6 06:16:30 10° NE 06:19:29 23° E 06:22:29 10° SSE visible
25 Feb 8.5 18:32:11 10° SSW 18:35:25 35° W 18:38:44 10° NNW visible
26 Feb 10.3 05:53:32 10° NE 05:55:30 14° E 05:57:29 10° ESE visible
27 Feb 10.2 19:20:09 10° WSW 19:21:47 13° W 19:23:27 10° WNW visible
